Location: Fours
(44.3167°N, 6.7000°E)
Time: 05:09:44
(UTC+00:00)

Cosmos 2218 Rocket - Pass Details

Date: 31 May 2022
Orbit: 956 x 1005 km, 82.9° (Epoch: 03 July)

Event Time Altitude Azimuth Distance (km) Brightness Sun altitude
Rises 00:26:22 0° 6° (N) 3,679 8.5 -22.6°
Reaches altitude 10° 00:30:13 10° 30° (NNE) 2,737 7.4 -22.4°
Maximum altitude 00:33:37 15° 63° (ENE) 2,405 6.6 -22.3°
Drops below altitude 10° 00:37:00 10° 96° (E) 2,748 6.5 -22.1°
Sets 00:40:51 0° 119° (ESE) 3,701 6.9 -21.9°
